Terminal Aerodrome Forecast
Issued by NWS La Crosse, WI

Home | Current Version | Previous Version | Text Only | Print | Product List | Glossary On
Versions: 1 2 3 4 5 6 7 8 9 10 11 12 13 14 15 16 17 18 19 20 21 22 23 24 25 26 27 28 29 30 31 32 33 34 35 36 37 38 39 40
000
FTUS43 KARX 290536
TAFRST
TAF
KRST 290536Z 2906/3006 34005KT 1SM -DZ BR OVC003
     FM290900 32018G25KT 3SM -DZ BR OVC003
     FM291200 33023G32KT P6SM OVC005
     FM291800 33022G30KT P6SM OVC015
     FM300000 33016KT P6SM OVC015=

USA.gov is the U.S. government's official web portal to all federal, state and local government web resources and services.